Вернуться в каталог

STARLINK-31885

АктивенСвязьVLEO
NORAD 59660·PAYLOAD·🇺🇸 United States

Запущен May 6, 2024 с Cape Canaveral Space Force Station

Loading…

Ближайшие Пролёты (ближайшие 24 часа)

TLE

СвежийSource: CelesTrak SupGP

Эпоха: Sep 15, 2026, 02:41 UTC

1 59660C 24084G   26258.11229167 -.00028618  00000+0 -10365-2 0  2587
2 59660  43.0019  48.6218 0001331 270.7598  44.2536 15.27593325    17

Отслеживайте STARLINK-31885 в реальном времени с AllMySat

Download on the App Store